Flag Weather past 2 weeks in Wolfenbüttel, Lower Saxony, Germany

Now
61 °F

Sunny.


Feels Like: 61 °F
Forecast: 49 / 64 °F
Wind: 3 mph from North

Location: Braunschweig

Current Time: Oct 31, 2014 at 4:17:56 PM

Latest Report: Oct 31, 2014 at 3:50 PM


Visibility: 10 mi

Pressure: 30.21 "Hg

Humidity: 88%

Dew point: 57 °F

Location of WolfenbüttelLocation

Historic Weather in Wolfenbüttel — Graph

°F

Wolfenbüttel temperature yesterday

Maximum temperature yesterday: 52 °F (at 11:50 AM)
Minimum temperature yesterday: 46 °F (at 7:20 AM)
Average temperature yesterday: 50 °F

Past Weeks' High & Low Weather Summary

 TemperatureHumidityPressure
High72 °F (Oct 19, 3:50 PM)100% (Oct 16, 4:20 PM)30.30 "Hg (Oct 16, 4:20 PM)
Low30 °F (Oct 29, 7:20 AM)59% (Oct 24, 4:20 PM)29.45 "Hg (Oct 21, 6:20 PM)
Average53 °F89%30.03 "Hg
* Reported Oct 16 4:20 PM — Oct 31 3:20 PM, Wolfenbüttel, Weather by CustomWeather, © 2014

Note: Actual official high and low records may vary slightly from our data, if they occured in-between our weather recording intervals... More about our weather records

Advertising

Wolfenbüttel weather history for previous 24 hours

 ConditionsComfort  
Time TempWeatherWind HumidityBarometerVisibility
3:20 PM
Oct 31
63 °FPassing clouds.7 mph77%30.21 "HgN/A
2:50 PM64 °FSunny.8 mph73%30.18 "Hg10 mi
2:20 PM64 °FSunny.10 mph73%30.21 "Hg10 mi
1:50 PM63 °FSunny.7 mph77%30.21 "Hg10 mi
1:20 PM63 °FSunny.8 mph77%30.21 "Hg10 mi
12:50 PM63 °FSunny.8 mph77%30.21 "Hg10 mi
12:20 PM61 °FPassing clouds.6 mph88%30.24 "HgN/A
11:50 AM59 °FClear.8 mph88%30.24 "Hg5 mi
11:20 AM59 °FClear.8 mph88%30.24 "Hg5 mi
10:50 AM57 °FClear.7 mph100%30.24 "Hg4 mi
10:20 AM57 °FClear.6 mph94%30.24 "Hg4 mi
9:50 AM54 °FClear.6 mph100%30.24 "Hg4 mi
9:20 AM54 °FClear.5 mph100%30.24 "Hg4 mi
8:50 AM52 °FClear.5 mph100%30.24 "Hg4 mi
8:20 AM50 °FFog.5 mph100%30.24 "Hg3 mi
7:50 AM48 °FClear.3 mph100%30.24 "Hg2 mi
7:20 AM48 °FFog.3 mph100%30.24 "Hg3 mi
6:50 AM48 °FFog.6 mph100%30.21 "Hg3 mi
9:50 PM
Oct 30
50 °FOvercast.5 mph100%30.27 "Hg6 mi
9:20 PM50 °FOvercast.5 mph100%30.27 "Hg6 mi
8:20 PM52 °FOvercast.3 mph100%30.27 "HgN/A
7:50 PM52 °FOvercast.6 mph100%30.27 "HgN/A
7:20 PM52 °FOvercast.6 mph100%30.27 "HgN/A
6:50 PM50 °FOvercast.5 mph100%30.27 "HgN/A
6:20 PM52 °FLow clouds.3 mph100%30.27 "HgN/A
5:50 PM52 °FOvercast.6 mph100%30.27 "HgN/A
5:20 PM52 °FMostly cloudy.7 mph100%30.24 "HgN/A
4:50 PM52 °FLow clouds.5 mph100%30.24 "HgN/A
4:20 PM52 °FLow clouds.5 mph100%30.24 "HgN/A
Weather by CustomWeather, © 2014

See weather overviewHow to use our weather pages